Tracking 27420 objects as of 28-May-2023
HD Live streaming from Space Station
objects crossing your sky now

KAISTSAT 4

Track KAISTSAT 4 now!
10-day predictions
KAISTSAT 4 is classified as:


NORAD ID: 27945
Int'l Code: 2003-042G
Perigee: 674.8 km
Apogee: 690.0 km
Inclination: 98.2 °
Period: 98.3 minutes
Semi major axis: 7053 km
RCS: 0.503 m2 (medium)
Launch date: September 27, 2003
Source: South Korea (SKOR)
Launch site: PLESETSK MISSILE AND SPACE COMPLEX (PKMTR)

Turkey's first earth observation satellite; part of international Disaster Monitoring Constellation (DMC).
Your satellite tracking list
Your tracking list is empty




NASA's NSSDC Master Catalog

Two Line Element Set (TLE):
1 27945U 03042G   23147.89251854  .00000457  00000-0  93274-4 0  9990
2 27945  98.2392 285.2715 0010806 241.9938 118.0173 14.65560665 50395
Source of the keplerian elements: AFSPC